Woodinville, Washington, United States (98072)
Lat: 47.75N, Lon: 122.16W
Wx Zone: WAZ505
Local Info
Past Weather Observations for Wednesday, August 27, 2014

NOTE: This archive is for the closest National Weather Service station to Woodinville. Information may differ from the station used for current weather conditions.

Click here for Long-term Archive

Time Weather Temperature Dewpoint Humidity Pressure Winds Precip Visibility
23:53
Mostly Cloudy
61°F / 16°C 57°F / 14°C 88% 30.06 in
(1018 mb)
NNE 6.9 mph
(NNE 11 kph)
- 10SM
22:53
Overcast
63°F / 17°C 57°F / 14°C 83% 30.04 in
(1017 mb)
N 6.9 mph
(N 11 kph)
- 10SM
21:53
Overcast
63°F / 17°C 57°F / 14°C 83% 30.04 in
(1017 mb)
N 8.1 mph
(N 13 kph)
- 10SM
20:53
Overcast
64°F / 18°C 55°F / 13°C 73% 30.04 in
(1017 mb)
N 11.5 mph
(N 19 kph)
- 10SM
19:53
Overcast
66°F / 19°C 54°F / 12°C 64% 30.04 in
(1017 mb)
NNE 9.2 mph
(NNE 15 kph)
- 10SM
18:53
Mostly Cloudy
66°F / 19°C 55°F / 13°C 68% 30.04 in
(1017 mb)
NE 9.2 mph
(NE 15 kph)
- 10SM
17:53
Mostly Cloudy
72°F / 22°C 57°F / 14°C 61% 30.04 in
(1017 mb)
N 6.9 mph
(N 11 kph)
- 10SM
16:53
Clear
73°F / 23°C 57°F / 14°C 57% 30.04 in
(1017 mb)
N 5.8 mph
(N 9 kph)
- 10SM
15:53
Clear
79°F / 26°C 57°F / 14°C 48% 30.04 in
(1017 mb)
N 8.1 mph
(N 13 kph)
- 10SM
14:53
Clear
79°F / 26°C 57°F / 14°C 48% 30.04 in
(1017 mb)
Variable 4.6 mph
(Variable 7 kph)
- 10SM
13:53
Clear
79°F / 26°C 59°F / 15°C 51% 30.06 in
(1018 mb)
W 6.9 mph
(W 11 kph)
- 10SM
12:53
Clear
75°F / 24°C 59°F / 15°C 57% 30.06 in
(1018 mb)
WNW 4.6 mph
(WNW 7 kph)
- 10SM
11:53
Clear
75°F / 24°C 57°F / 14°C 54% 30.06 in
(1018 mb)
W 6.9 mph
(W 11 kph)
- 10SM
10:53
Clear
73°F / 23°C 57°F / 14°C 57% 30.06 in
(1018 mb)
SSW 5.8 mph
(SSW 9 kph)
- 10SM
09:53
Clear
73°F / 23°C 57°F / 14°C 57% 30.06 in
(1018 mb)
W 5.8 mph
(W 9 kph)
- 10SM
08:53
Clear
72°F / 22°C 59°F / 15°C 65% 30.06 in
(1018 mb)
NNE 3.5 mph
(NNE 6 kph)
- 10SM
07:53
Clear
70°F / 21°C 57°F / 14°C 64% 30.06 in
(1018 mb)
Calm - 10SM
06:53
Clear
64°F / 18°C 57°F / 14°C 78% 30.06 in
(1018 mb)
Calm - 10SM
05:53
Clear
63°F / 17°C 57°F / 14°C 83% 30.04 in
(1017 mb)
Calm - 10SM
04:53
Clear
64°F / 18°C 57°F / 14°C 78% 30.04 in
(1017 mb)
Calm - 10SM
03:53
Clear
64°F / 18°C 57°F / 14°C 78% 30.04 in
(1017 mb)
NE 4.6 mph
(NE 7 kph)
- 10SM
02:53
Clear
64°F / 18°C 57°F / 14°C 78% 30.04 in
(1017 mb)
ENE 3.5 mph
(ENE 6 kph)
- 10SM
01:53
Clear
64°F / 18°C 55°F / 13°C 73% 30.04 in
(1017 mb)
ENE 3.5 mph
(ENE 6 kph)
- 10SM
00:53
Clear
66°F / 19°C 55°F / 13°C 68% 30.04 in
(1017 mb)
Variable 4.6 mph
(Variable 7 kph)
- 10SM
Time Weather Temperature Dewpoint Humidity Pressure Winds Precip Visibility


Weather for websites

WeatherForYou.com, LLC is not responsible for any damages or problems caused by this service. Current weather conditions are obtained from the closest station including government and personal stations which may have varying degrees of accuracy. Weather forecasts are derived from the NOAA NDFD. Like all things, this site belongs to Jesus Christ... He just trusts me to maintain it. If you have any questions or comments email webmaster@weatherforyou.com

Copyright © 2014, WeatherForYou.com LLC. All rights reserved.